Location: Ciuleni
(45.6833°N, 22.7833°E)
Time: 09:46:30
(UTC+00:00)

Daily predictions for brighter satellites

Satellite Brightness Start Highest point End
(mag) Time Altitude Azimuth Time Altitude Azimuth Time Altitude Azimuth
S3M 4.2 18:15:26 10° S 18:21:48 82° W 18:28:08 10° N
Helios 1A Rocket 4.1 18:20:09 10° S 18:24:08 45° W 18:28:08 10° NNW
X-37B 3.1 18:25:00 10° WSW 18:26:33 13° SW 18:28:06 10° S
Cosmos 1500 3.7 18:23:27 10° N 18:27:01 40° ENE 18:30:32 10° SSE
Akebono 4.3 18:27:45 10° N 18:29:49 44° ENE 18:31:58 10° SE
Cosmos 1437 2.4 18:29:21 10° S 18:32:08 59° E 18:34:56 10° NNE
SJ-6B 3.4 18:28:24 10° S 18:32:18 62° W 18:36:20 10° NNW
USA 267 4.0 18:29:25 10° SSE 18:35:38 46° SW 18:41:54 10° WNW
ERS-2 3.2 18:32:21 10° N 18:35:53 49° WNW 18:39:24 10° SSW
Terra 4.1 18:36:16 10° ENE 18:37:17 11° NE 18:38:18 10° NE
Cosmos 2315 Rocket 4.1 18:31:56 10° S 18:38:17 74° E 18:44:39 10° NNE
Cosmos 1515 Rocket 4.0 18:38:20 10° SSE 18:42:29 42° E 18:46:37 10° NNE
Cosmos 1633 Rocket 3.3 18:41:28 10° NNW 18:45:54 76° W 18:50:18 10° S
Cosmos 773 Rocket 4.5 18:40:50 10° NNW 18:46:04 63° WSW 18:51:15 10° S
MOS 1-B Rocket 4.4 18:39:20 10° NNE 18:46:29 79° WNW 18:52:34 10° SSW
Cosmos 2082 Rocket 2.6 18:43:09 10° NNW 18:48:39 52° ENE 18:53:48 12° SE
Resurs 01 Rocket 1.7 18:44:31 10° SSE 18:48:54 62° ENE 18:53:18 10° N
Tianhe-1 2.3 18:48:23 10° SW 18:50:58 24° SSE 18:53:06 13° ESE
SPOT 1/Viking Rocket 4.2 18:47:11 10° SE 18:51:57 40° ENE 18:56:46 10° N
Cosmos 1328 Rocket 3.7 18:49:06 10° S 18:53:31 83° W 18:57:56 10° N
EP 1 4.4 18:52:20 10° SSW 18:55:36 67° SE 18:58:17 10° NE
Cosmos 1943 Rocket 3.6 18:53:41 12° SE 18:56:45 17° E 19:00:19 10° ENE
USA 305 3.3 18:52:50 10° WNW 18:57:01 56° SW 19:00:36 14° SE
Cosmos 1538 Rocket 4.1 18:53:50 10° NNW 18:59:13 89° WSW 19:04:28 10° SSE
Spot 2 Rocket 4.4 18:55:08 12° SE 18:59:14 34° ENE 19:03:46 10° N
Cosmos 1470 Rocket 3.6 18:58:46 10° N 19:03:17 86° W 19:07:45 10° S
Landsat 7 3.8 19:01:57 11° SSE 19:06:34 74° ENE 19:11:20 10° N
SPOT 5 4.3 19:03:13 13° ESE 19:07:00 29° ENE 19:11:31 10° N
OBJECT-B 3.5 19:05:37 10° SW 19:07:57 18° W 19:10:18 10° NW
SPOT 3 Rocket 3.5 19:03:03 10° SSE 19:08:13 86° ENE 19:13:24 10° NNW
ERBS 4.1 19:06:31 10° NNW 19:09:17 24° NNE 19:12:05 10° E
CZ-2C R/B 3.9 19:05:29 10° NNE 19:09:56 53° E 19:14:25 10° S
COSMOS 2406 3.7 19:04:47 10° NNW 19:10:22 59° WSW 19:15:56 10° S
Cosmos 1536 4.0 19:07:22 10° NNE 19:10:49 27° ENE 19:13:01 17° ESE
Cosmos 2278 Rocket 2.5 19:07:09 10° SSW 19:12:47 71° WNW 19:18:28 10° NNE
Cosmos 1680 Rocket 4.2 19:08:18 10° N 19:13:24 43° ENE 19:17:11 17° SE
Cosmos 1271 Rocket 2.8 19:09:54 10° S 19:13:50 59° E 19:17:47 10° NNE
USA 306 3.7 19:12:37 10° WNW 19:16:37 41° SW 19:19:31 17° SSE
Cosmos 1933 Rocket 3.5 19:12:39 10° N 19:17:01 87° E 19:20:48 14° S
Cosmos 2369 Rocket 3.9 19:17:03 13° ESE 19:17:58 13° E 19:20:34 10° ENE
SJ 16-02 1.6 19:16:00 10° SSW 19:20:25 73° WNW 19:24:53 10° NNE
ISS -3.9 19:17:28 10° SW 19:20:48 69° SSE 19:24:10 10° ENE
Cosmos 2084 Rocket 4.3 19:17:16 10° NNW 19:21:19 40° NE 19:24:21 17° ESE
IGS 5A 3.9 19:21:27 11° S 19:25:21 61° W 19:29:29 10° NNW
Cosmos 1544 4.3 19:22:33 10° NNE 19:25:39 26° ENE 19:27:01 21° ESE
BREEZE-M R/B 3.4 19:26:26 10° WNW 19:28:43 32° N 19:31:08 10° ENE
NOSS 3-4 (A) 4.0 19:21:59 10° NW 19:29:01 75° SW 19:35:07 18° SSE
NOSS 3-4 (C) 4.0 19:22:06 10° NW 19:29:07 75° SW 19:35:13 18° SSE
Meteor 2-6 Rocket 4.4 19:25:11 10° SSW 19:30:38 75° WNW 19:36:15 10° N
Cosmos 1666 2.9 19:28:08 10° NNW 19:31:50 65° W 19:34:37 16° S
ARIANE 5 R/B 2.7 19:32:42 23° SSE 19:35:17 63° ENE 19:39:36 10° N
Iridium 4 Rocket 3.8 19:32:43 11° S 19:38:21 86° E 19:44:18 10° N
Cosmos 1812 4.1 19:34:48 10° SSW 19:38:26 39° WNW 19:42:05 10° N
Cosmos 1833 Rocket 4.0 19:36:36 10° NW 19:41:37 33° WSW 19:46:36 10° SSW
USA 245 2.0 19:41:15 53° SSW 19:41:39 73° W 19:44:03 10° NNW
ATLAS 2AS CENTAUR R/B 2.8 19:35:01 10° NW 19:42:27 84° NE 19:47:04 23° SE
Cosmos 990 Rocket 3.9 19:38:09 10° S 19:43:20 71° ESE 19:48:36 10° NNE
USA 307 4.4 19:41:39 10° WNW 19:45:14 26° SW 19:47:12 19° S
Cosmos 1898 Rocket 3.6 19:41:27 13° S 19:46:08 60° ESE 19:51:24 10° NNE
OAO 3 Rocket 4.4 19:43:22 10° SW 19:46:56 22° S 19:47:02 22° S
Meteor 1-27 Rocket 3.8 19:42:23 14° S 19:47:32 74° E 19:53:28 10° NNE
Cosmos 158 Rocket 4.5 19:45:05 10° NNW 19:49:49 51° WSW 19:53:13 19° S
CZ-4C R/B 4.2 19:43:26 10° NW 19:50:02 34° WSW 19:57:17 10° S
SL-24 R/B - RUBIN 2 3.9 19:45:10 10° NW 19:50:38 86° NE 19:53:10 29° SE
Milstar 3 4.4 19:37:30 10° WSW 19:50:50 33° S 19:55:45 22° SE
Cosmos 923 Rocket 4.1 19:46:23 10° NNW 19:51:40 72° WSW 19:54:56 24° S
Cosmos 2154 Rocket 4.0 19:45:38 10° N 19:51:59 81° E 19:56:11 22° SSE
Cosmos 44 3.5 19:49:20 10° NW 19:54:47 87° WSW 19:57:31 29° SSE
Cosmos 1818 3.7 19:49:41 10° NNW 19:55:10 66° NE 19:58:08 27° SE
Nadezhda 1 Rocket 3.9 19:50:59 14° S 19:56:26 83° E 20:02:40 10° N
Cosmos 2074 Rocket 4.4 19:50:58 10° NNW 19:57:11 63° W 20:02:25 15° S
Cosmos 2184 Rocket 4.3 19:52:16 10° NNW 19:58:23 64° W 20:03:21 16° S
Cosmos 1743 2.9 19:59:14 10° N 20:03:02 54° ENE 20:04:02 41° SE
Gbstr 26 Del rocket 4.2 20:04:11 10° WNW 20:11:54 90° NNE 20:15:50 27° ESE
Terra 1.8 20:12:16 36° SSE 20:14:10 74° ENE 20:18:56 10° N
H-2A R/B 3.5 20:10:50 10° NNE 20:14:57 57° E 20:15:56 44° SSE
Cosmos 967 Rocket 4.4 20:09:25 10° SW 20:15:42 87° NW 20:22:02 10° NE
Cosmos 2297 3.7 20:11:49 10° SSW 20:17:31 83° WNW 20:23:14 10° NNE
Cosmos 1461 3.0 20:14:09 17° SSW 20:17:48 76° ESE 20:22:27 10° NE
Cosmos 1862 Rocket 3.9 20:20:42 42° ESE 20:21:21 45° E 20:25:28 10° NNE
Cosmos 2228 Rocket 4.3 20:19:04 12° SW 20:22:57 40° WNW 20:27:12 10° N
Cosmos 1340 Rocket 3.0 20:19:29 10° NNW 20:23:32 65° W 20:24:45 41° SSW
Cosmos 1607 4.4 20:22:36 33° SSE 20:24:33 41° ESE 20:30:33 10° NE
Resurs 01 Rocket 4.2 20:23:24 10° WSW 20:25:48 14° W 20:28:13 10° WNW
Okean 1 3.3 20:25:18 54° SE 20:25:48 59° E 20:29:43 10° NNE
Tianhe-1 3.3 20:24:12 10° WSW 20:25:05 17° WSW 20:25:05 17° WSW
ERS-1 Rocket 3.4 20:29:27 30° SSW 20:31:45 55° W 20:36:42 10° NNW
Cosmos 2366 rocket 4.2 20:25:47 10° N 20:31:52 55° ENE 20:34:18 35° SE
ATLAS CENTAUR R/B 3.1 20:34:09 17° ENE 20:34:09 17° ENE 20:35:20 10° ENE
BREEZE M DEB (TANK) 3.1 20:29:36 10° WNW 20:31:13 25° W 20:31:13 25° W
Cosmos 2082 Rocket 3.8 20:27:50 10° NW 20:32:23 26° WSW 20:35:40 15° SSW
Cosmos 2181 Rocket 4.0 20:31:25 36° SSE 20:33:51 61° E 20:39:53 10° NNE
Cosmos 489 Rocket 4.4 20:29:53 10° NNW 20:36:11 81° ENE 20:38:46 38° SSE
Cosmos 1515 3.7 20:39:06 60° SSW 20:39:40 77° W 20:43:29 10° N
Cosmos 1943 Rocket 2.3 20:35:05 15° SSW 20:39:50 75° WNW 20:45:27 10° NNE
Cosmos 1937 Rocket 3.8 20:36:59 18° SW 20:40:44 65° WNW 20:45:55 10° NNE
Cosmos 1707 Rocket 4.1 20:41:46 31° SW 20:43:37 55° WNW 20:48:00 10° N
SPOT 5 3.9 20:42:26 27° SSW 20:44:50 44° W 20:49:56 10° NNW
ERBS 3.0 20:42:21 10° WNW 20:44:57 43° W 20:44:57 43° W
Cosmos 1656 Rocket 3.9 20:48:48 44° SE 20:49:30 46° ESE 20:54:47 10° NE
Cosmos 1867 3.5 20:48:05 45° S 20:49:31 61° ESE 20:54:56 10° NE
Cosmos 2341 Rocket 4.2 20:48:31 10° NNW 20:54:52 67° W 20:57:43 34° SSW
Cosmos 1238 Rocket 3.6 20:51:53 10° NNW 20:57:38 69° W 20:59:04 46° SSW
ISS -2.0 20:54:42 10° W 20:57:49 34° NNW 21:00:57 10° NE
Cosmos 2369 Rocket 2.1 20:58:46 37° SSW 21:01:06 89° ESE 21:06:48 10° NNE
Cosmos 1048 Rocket 4.3 20:56:00 10° NNW 21:01:15 59° ENE 21:02:32 45° ESE
Cosmos 2218 Rocket 4.0 20:55:12 10° N 21:01:33 88° W 21:03:52 43° S
Centaur D AC-29 4.2 20:22:28 10° WSW 21:03:31 30° SSW 21:05:49 29° S
Cosmos 1975 2.7 21:01:22 10° N 21:05:22 86° W 21:05:24 86° WSW
Meteor 1-18 Rocket 4.2 21:05:51 41° SSW 21:07:52 79° W 21:13:28 10° N
ALOS 2 3.7 21:10:21 31° E 21:10:53 32° ENE 21:14:47 10° N
Cosmos 1733 Rocket 3.9 21:07:38 10° NNW 21:11:40 40° W 21:12:25 36° WSW
Lacrosse 5 3.3 21:15:09 24° E 21:15:09 24° E 21:17:42 10° ENE
SL-8 Rocket 4.3 21:08:13 10° NNW 21:14:26 61° W 21:16:50 37° SSW
Nadezhda 3 Rocket 4.4 21:15:02 41° SE 21:16:25 48° E 21:22:19 10° NNE
RESURS DK-1 2.3 21:13:35 10° NNW 21:17:43 87° N 21:17:43 87° N
SL-27 R/B 3.4 21:17:00 10° NNW 21:19:32 42° NNE 21:19:32 42° NNE
Cosmos 1356 Rocket 4.3 21:17:25 10° N 21:21:29 39° ENE 21:21:35 39° ENE
Cosmos 2298 Rocket 3.9 21:29:27 60° SSW 21:30:28 89° ESE 21:35:48 10° NNE
Cosmos 1908 Rocket 3.6 21:27:15 10° NNW 21:31:43 68° W 21:31:53 67° WSW
ATLAS 2AS CENTAUR R/B 4.2 21:27:17 10° WNW 21:32:26 22° WSW 21:34:30 19° SW
COSMOS 2455 4.5 21:28:59 10° NNW 21:34:07 28° NE 21:38:39 12° E
Sich 1 Rocket 4.4 21:34:42 10° N 21:39:01 40° ENE 21:39:11 40° E
Cosmos 2263 4.5 21:36:43 36° SW 21:39:05 67° WNW 21:44:53 10° NNE
Cosmos 494 Rocket 3.8 21:34:42 10° NNW 21:39:55 89° WSW 21:40:30 71° SSE
Cosmos 1066 Rocket 4.5 21:40:39 49° ESE 21:41:22 52° E 21:46:48 10° NNE
Cosmos 1805 4.5 21:40:01 10° N 21:43:12 34° ENE 21:43:12 34° ENE
Cosmos 2242 Rocket 3.7 21:44:03 63° W 21:44:17 64° W 21:48:45 10° N
Cosmos 1378 3.9 21:47:26 49° NNE 21:47:26 49° NNE 21:50:17 10° NNE
COBE Rocket 4.1 21:46:43 57° ESE 21:47:26 64° ENE 21:52:34 10° N
Okean 2 Rocket 4.0 21:46:37 10° N 21:50:42 36° ENE 21:50:47 36° ENE
Cosmos 2227 Rocket 4.5 21:46:55 10° N 21:50:44 18° NE 21:54:32 10° E
Terra 4.1 21:51:09 12° WSW 21:52:28 13° W 21:54:47 10° WNW
Meteor 2-4 Rocket 4.2 21:51:00 38° SW 21:52:46 52° WNW 21:58:13 10° N
Cosmos 2297 Rocket 4.2 21:48:46 10° N 21:53:12 23° NE 21:57:23 11° E
Cosmos 44 Rocket 3.2 21:50:31 10° NW 21:55:47 88° WSW 21:56:13 76° SSE
NOSS 2-1 (C) 4.3 21:51:10 10° NW 21:56:04 75° NE 21:57:57 46° SE
Okean 1-7 3.5 21:56:31 50° W 21:56:37 50° WNW 22:00:49 10° N
Cosmos 2150 Rocket 4.4 21:56:17 44° WSW 21:57:43 59° WNW 22:02:57 10° NNE
Cosmos 1703 Rocket 4.2 22:00:16 45° W 22:00:34 45° WNW 22:04:51 10° N
Cosmos 1766 4.4 21:58:21 10° N 22:01:38 37° ENE 22:01:38 37° ENE
NOSS 2-1 (D) 4.2 21:58:02 10° NW 22:02:58 83° NE 22:04:37 51° SE
Cosmos 1782 Rocket 3.9 21:59:52 10° NNW 22:04:03 55° W 22:04:03 55° W
Cosmos 1125 Rocket 3.7 22:04:18 51° WSW 22:05:22 63° WNW 22:10:34 10° NNE
Cosmos 1934 Rocket 3.9 22:01:30 10° N 22:07:38 74° E 22:08:56 55° SE
ATLAS CENTAUR R/B 2.7 22:10:15 28° WNW 22:10:55 30° NW 22:14:20 10° NNE
COSMOS 2487 3.8 22:10:39 10° NNW 22:12:53 37° N 22:12:53 37° N
Cosmos 1821 Rocket 4.3 22:09:52 10° NNW 22:16:07 56° W 22:17:36 46° SW
Meteor 1-23 Rocket 4.2 22:21:04 64° S 22:22:00 81° E 22:27:51 10° NNE
Cosmos 1842 4.2 22:33:44 41° ENE 22:33:44 41° ENE 22:36:43 10° NNE
ISS -1.8 22:32:10 10° WNW 22:35:13 30° N 22:38:15 10° ENE
Resurs 1-4 Rocket 4.3 22:36:30 10° ENE 22:38:48 13° E 22:40:19 12° ESE
Cosmos 2221 Rocket 3.6 22:40:00 73° WNW 22:40:00 73° WNW 22:44:31 10° N
CZ-2D R/B 4.3 22:39:07 10° ENE 22:41:43 14° E 22:43:21 12° ESE
Cosmos 2219 4.2 22:37:10 10° NNW 22:42:35 41° NE 22:45:42 23° ESE
Okean 1 Rocket 3.6 22:39:54 10° N 22:44:10 48° ENE 22:44:17 48° E
Cosmos 1733 4.2 22:41:05 10° NNW 22:43:52 41° NW 22:43:52 41° NW
Cosmos 1727 Rocket 4.4 22:44:17 43° SE 22:45:54 55° E 22:52:05 10° NNE
Cosmos 2369 Rocket 4.5 22:41:59 10° W 22:45:56 19° NW 22:49:55 10° N
EO 1 Del DPAF 4.0 22:42:35 10° NNE 22:45:27 45° NE 22:45:27 45° NE
Cosmos 1400 Rocket 3.1 22:42:37 10° N 22:46:15 64° NNE 22:46:15 64° NNE
Cosmos 1674 Rocket 3.6 22:46:54 72° ENE 22:46:54 72° ENE 22:51:12 10° NNE
ALOS 2 4.1 22:47:43 26° W 22:47:43 26° W 22:50:58 10° NW
SeaSat 1 2.6 22:47:14 10° NE 22:52:05 55° ESE 22:52:11 55° ESE
Lacrosse 5 2.3 22:54:17 38° W 22:55:59 58° NW 23:01:02 10° NE
Cosmos 1315 Rocket 4.2 22:53:07 10° N 22:56:42 30° ENE 22:57:09 29° E
USA 81 3.9 22:51:28 10° N 22:56:46 77° W 22:57:21 68° SSW
Cosmos 1707 3.9 22:58:54 36° ENE 22:58:54 36° ENE 23:01:58 10° NNE
USA 281 4.3 22:55:42 11° ESE 23:01:33 41° NE 23:07:37 10° NNW
USA 276 4.3 23:03:50 23° NE 23:03:50 23° NE 23:05:16 10° ENE
Meteor 1-22 Rocket 4.4 22:57:46 10° NNW 23:03:49 71° W 23:05:03 56° SSW
Helios 1A 3.5 23:06:55 49° E 23:07:15 50° ENE 23:11:17 10° N
Cosmos 2251 Rocket 3.8 23:03:12 10° NNW 23:08:25 62° ENE 23:09:56 43° SE
USA 215 3.4 23:02:02 10° ESE 23:08:33 73° NNE 23:15:04 10° NW
SL-16 R/B 3.9 23:03:40 13° ESE 23:08:36 34° ENE 23:14:07 10° N
Cosmos 1697 Rocket 3.8 23:07:56 29° ESE 23:08:51 30° ESE 23:13:41 10° NE
Cosmos 1459 Rocket 4.5 23:05:08 10° N 23:11:15 54° ENE 23:13:49 33° SE
Thor Agena Rocket 4.4 23:09:27 10° N 23:14:23 42° WNW 23:15:40 36° WSW
Cosmos 1455 Rocket 4.2 23:15:14 10° N 23:19:16 36° ENE 23:20:20 31° ESE
COSMOS 2455 2.8 23:14:34 10° NW 23:20:34 68° WSW 23:21:45 54° S
Okean 2 3.5 23:21:02 69° WNW 23:21:02 69° WNW 23:25:01 10° N
Cosmos 1726 2.6 23:17:43 10° N 23:20:43 55° NNW 23:20:43 55° NNW
Cosmos 1605 Rocket 4.4 23:16:16 10° NNW 23:22:17 49° W 23:23:41 42° SW
Cosmos 1980 Rocket 3.9 23:21:15 18° SE 23:22:55 21° E 23:27:02 10° NE
Cosmos 2173 Rocket 4.0 23:24:47 10° N 23:31:01 77° E 23:33:26 40° SSE
In-Cosmos 22 4.3 23:33:41 48° SSE 23:35:08 68° E 23:40:34 10° NNE
Cosmos 2227 Rocket 2.1 23:29:58 10° NNW 23:35:39 86° ENE 23:37:44 41° SSE
Cosmos 1674 3.5 23:36:47 42° E 23:36:52 42° E 23:40:30 10° NNE
Cosmos 2297 Rocket 2.1 23:32:10 10° NNW 23:37:49 72° WSW 23:39:09 52° S
Cosmos 1656 3.6 23:40:31 53° SW 23:41:51 79° WNW 23:47:25 10° NNE
Cosmos 1626 3.7 23:42:44 25° ESE 23:43:11 26° E 23:46:18 10° NNE
Meteor 2-20 Rocket 4.5 23:41:49 46° SSW 23:43:41 70° W 23:49:51 10° N
Cosmos 2061 Rocket 4.3 23:41:14 10° N 23:47:34 65° E 23:51:07 28° SSE
Timation 2 Rocket 3.8 23:41:50 10° NNW 23:47:48 73° WSW 23:49:55 42° S
Cosmos 2369 4.2 23:48:09 37° SSE 23:49:54 49° ESE 23:55:24 10° NE
Cosmos 1953 2.5 23:46:00 10° N 23:50:00 65° E 23:50:30 57° ESE
Cosmos 407 Rocket 4.0 23:45:50 10° NNW 23:51:08 60° ENE 23:54:29 22° SE
TSX-5 3.7 23:48:29 10° NNW 23:51:39 67° WNW 23:51:39 67° WNW
Cosmos 2082 4.0 23:47:34 10° NNW 23:53:16 65° ENE 23:57:39 17° SE
Cosmos 1975 Rocket 2.8 23:54:16 69° SSW 23:54:46 85° W 23:59:07 10° N
